timestamp,surface_pressure_avg,surface_temp_avg,battery_voltage,lat,long
2021-06-14 00:09:01+00:00,323.1213,8.89,13.29,47.84626,-54.09684
2021-06-14 00:19:01+00:00,330.5746,8.9,12.97,47.84626,-54.09684
2021-06-14 00:29:01+00:00,333.4963,8.9,12.97,47.84626,-54.09684
2021-06-14 00:39:01+00:00,337.608,8.96,12.97,47.84626,-54.09684
2021-06-14 00:49:01+00:00,345.2097,8.98,12.97,47.84626,-54.09684
2021-06-14 00:59:01+00:00,347.5079,8.99,12.97,47.84626,-54.09684
2021-06-14 01:09:01+00:00,350.668,8.99,12.97,47.84626,-54.09684
2021-06-14 01:19:01+00:00,355.4946,8.97,12.73,47.84626,-54.09684
2021-06-14 01:29:01+00:00,356.968,8.9,12.73,47.84626,-54.09684
2021-06-14 01:39:01+00:00,354.31300000000016,8.9,12.73,47.84626,-54.09684
2021-06-14 01:49:01+00:00,356.7263,8.9,12.73,47.84626,-54.09684
2021-06-14 01:59:01+00:00,359.4178,8.9,12.73,47.84626,-54.09684
2021-06-14 02:09:01+00:00,358.92800000000005,8.9,12.73,47.84626,-54.09684
2021-06-14 02:19:00+00:00,357.7629,8.9,12.65,47.84626,-54.09684
2021-06-14 02:29:00+00:00,360.533,8.9,12.65,47.84626,-54.09684
2021-06-14 02:39:00+00:00,358.3463,8.9,12.65,47.84626,-54.09684
2021-06-14 02:49:00+00:00,353.2563,8.9,12.65,47.84626,-54.09684
2021-06-14 02:59:00+00:00,352.7596,8.9,12.65,47.84626,-54.09684
2021-06-14 03:09:00+00:00,352.6863,8.95,12.65,47.84626,-54.09684
2021-06-14 03:19:01+00:00,345.1013,9.0,12.65,47.84626,-54.09684
2021-06-14 03:29:01+00:00,340.4129,8.9,12.65,47.84626,-54.09684
2021-06-14 03:39:01+00:00,337.5947,8.9,12.65,47.84626,-54.09684
2021-06-14 03:49:01+00:00,334.4562,9.07,12.65,47.84626,-54.09684
2021-06-14 03:59:01+00:00,325.2496,9.24,12.65,47.84626,-54.09684
2021-06-14 04:09:01+00:00,319.2297,9.3,12.65,47.84626,-54.09684
2021-06-14 04:19:00+00:00,316.2062,9.2,12.65,47.84626,-54.09684
2021-06-14 04:29:00+00:00,311.2213,9.2,12.65,47.84626,-54.09684
2021-06-14 04:39:00+00:00,302.83799999999997,9.3,12.65,47.84626,-54.09684
2021-06-14 04:49:00+00:00,297.3697,9.3,12.65,47.84626,-54.09684
2021-06-14 04:59:00+00:00,287.8297,9.3,12.65,47.84626,-54.09684
2021-06-14 05:09:00+00:00,276.0447,9.3,12.65,47.84626,-54.09684
2021-06-14 05:19:01+00:00,268.3897,9.35,12.65,47.84626,-54.09684
2021-06-14 05:29:01+00:00,264.1965,9.3,12.65,47.84626,-54.09684
2021-06-14 05:39:01+00:00,254.0131,9.3,12.65,47.84626,-54.09684
2021-06-14 05:49:01+00:00,242.9531,9.3,12.65,47.84626,-54.09684
2021-06-14 05:59:01+00:00,236.8014,9.3,12.65,47.84626,-54.09684
2021-06-14 06:09:01+00:00,231.4031,9.3,12.65,47.84626,-54.09684
2021-06-14 06:19:00+00:00,221.8348,9.3,12.65,47.84626,-54.09684
2021-06-14 06:29:00+00:00,213.2265,9.3,12.65,47.84626,-54.09684
2021-06-14 06:39:00+00:00,206.7681,9.3,12.65,47.84626,-54.09684
2021-06-14 06:49:00+00:00,199.9948,9.3,12.65,47.84626,-54.09684
2021-06-14 06:59:00+00:00,195.6331,9.3,12.65,47.84626,-54.09684
2021-06-14 07:09:00+00:00,192.0931,9.3,12.65,47.84626,-54.09684
2021-06-14 07:19:00+00:00,187.5048,9.3,12.65,47.84626,-54.09684
2021-06-14 07:29:00+00:00,188.0281,9.3,12.65,47.84626,-54.09684
2021-06-14 07:39:00+00:00,190.4331,9.3,12.65,47.84626,-54.09684
2021-06-14 07:49:00+00:00,188.8398,9.3,12.65,47.84626,-54.09684
2021-06-14 07:59:00+00:00,186.7798,9.3,12.65,47.84626,-54.09684
2021-06-14 08:09:00+00:00,191.3181,9.3,12.65,47.84626,-54.09684
2021-06-14 08:19:00+00:00,192.4065,9.3,12.65,47.84626,-54.09684
2021-06-14 08:29:00+00:00,188.2981,9.3,12.65,47.84626,-54.09684
2021-06-14 08:39:00+00:00,194.4332,9.3,12.65,47.84626,-54.09684
2021-06-14 08:49:00+00:00,200.4865,9.3,12.65,47.84626,-54.09684
2021-06-14 08:59:00+00:00,199.2331,9.3,12.65,47.84626,-54.09684
2021-06-14 09:09:00+00:00,202.1898,9.3,12.65,47.84626,-54.09684
2021-06-14 09:19:01+00:00,209.7381,9.3,12.81,47.84626,-54.09684
2021-06-14 09:29:01+00:00,213.7498,9.3,12.81,47.84626,-54.09684
2021-06-14 09:39:01+00:00,211.1031,9.3,12.81,47.84626,-54.09684
2021-06-14 09:49:01+00:00,213.6614,9.3,12.81,47.84626,-54.09684
2021-06-14 09:59:01+00:00,220.0731,9.3,12.81,47.84626,-54.09684
2021-06-14 10:09:01+00:00,219.2631,9.3,12.81,47.84626,-54.09684
2021-06-14 10:19:01+00:00,218.1664,9.3,13.21,47.84626,-54.09684
2021-06-14 10:29:01+00:00,225.2031,9.3,13.21,47.84626,-54.09684
2021-06-14 10:39:01+00:00,227.0798,9.23,13.21,47.84626,-54.09684
2021-06-14 10:49:01+00:00,223.4565,9.22,13.21,47.84626,-54.09684
2021-06-14 10:59:01+00:00,229.0681,9.24,13.21,47.84626,-54.09684
2021-06-14 11:09:01+00:00,240.2347,9.27,13.21,47.84626,-54.09684
2021-06-14 11:19:01+00:00,243.2531,9.3,14.08,47.84626,-54.09684
2021-06-14 11:29:01+00:00,241.0298,9.3,14.08,47.84626,-54.09684
2021-06-14 11:39:01+00:00,248.3931,9.3,14.08,47.84626,-54.09684
2021-06-14 11:49:01+00:00,260.1447,9.3,14.08,47.84626,-54.09684
2021-06-14 11:59:01+00:00,263.8397,9.36,14.08,47.84626,-54.09684
2021-06-14 12:09:01+00:00,266.4164,9.4,14.08,47.84626,-54.09684
2021-06-14 12:19:00+00:00,275.1647,9.4,14.24,47.84626,-54.09684
2021-06-14 12:29:00+00:00,285.3914,9.39,14.24,47.84626,-54.09684
2021-06-14 12:39:00+00:00,287.7914,9.4,14.24,47.84626,-54.09684
2021-06-14 12:49:00+00:00,291.0881,9.49,14.24,47.84626,-54.09684
2021-06-14 12:59:00+00:00,297.2397,9.5,14.24,47.84626,-54.09684
2021-06-14 13:09:00+00:00,302.938,9.31,14.24,47.84626,-54.09684
2021-06-14 13:19:01+00:00,303.8563,9.5,14.16,47.84626,-54.09684
2021-06-14 13:29:01+00:00,307.7247,9.59,14.16,47.84626,-54.09684
2021-06-14 13:39:01+00:00,310.9514,9.5,14.16,47.84626,-54.09684
2021-06-14 13:49:01+00:00,311.1964,9.5,14.16,47.84626,-54.09684
2021-06-14 13:59:01+00:00,311.923,9.6,14.16,47.84626,-54.09684
2021-06-14 14:09:01+00:00,313.3363,9.6,14.16,47.84626,-54.09684
2021-06-14 14:19:01+00:00,314.7946,8.9,14.16,47.84626,-54.09684
2021-06-14 14:29:01+00:00,313.9213,9.32,14.16,47.84626,-54.09684
2021-06-14 14:39:01+00:00,315.2246,9.56,14.16,47.84626,-54.09684
2021-06-14 14:49:01+00:00,316.883,9.4,14.16,47.84626,-54.09684
2021-06-14 14:59:01+00:00,315.408,9.5,14.16,47.84626,-54.09684
2021-06-14 15:09:01+00:00,311.5563,9.6,14.16,47.84626,-54.09684
2021-06-14 15:19:01+00:00,310.4314,9.65,14.4,47.84626,-54.09684
2021-06-14 15:29:01+00:00,309.1313,9.7,14.4,47.84626,-54.09684
2021-06-14 15:39:01+00:00,307.2596,9.7,14.4,47.84626,-54.09684
2021-06-14 15:49:01+00:00,303.653,9.78,14.4,47.84626,-54.09684
2021-06-14 15:59:01+00:00,302.6813,9.8,14.4,47.84626,-54.09684
2021-06-14 16:09:01+00:00,298.9447,9.86,14.4,47.84626,-54.09684
2021-06-14 16:19:01+00:00,288.3831,10.05,14.16,47.84626,-54.09684
2021-06-14 16:29:01+00:00,281.2314,10.28,14.16,47.84626,-54.09684
2021-06-14 16:39:01+00:00,278.1131,10.29,14.16,47.84626,-54.09684
2021-06-14 16:49:01+00:00,271.7548,10.2,14.16,47.84626,-54.09684
2021-06-14 16:59:01+00:00,261.0281,10.24,14.16,47.84626,-54.09684
2021-06-14 17:09:01+00:00,257.163,10.3,14.16,47.84626,-54.09684
2021-06-14 17:19:01+00:00,254.7397,10.05,14.16,47.84626,-54.09684
2021-06-14 17:29:01+00:00,245.0598,9.7,14.16,47.84626,-54.09684
2021-06-14 17:39:01+00:00,234.2265,9.9,14.16,47.84626,-54.09684
2021-06-14 17:49:01+00:00,230.5397,9.9,14.16,47.84626,-54.09684
2021-06-14 17:59:01+00:00,225.4848,9.7,14.16,47.84626,-54.09684
2021-06-14 18:09:01+00:00,218.6498,9.8,14.16,47.84626,-54.09684
2021-06-14 18:19:00+00:00,215.1131,9.7,13.92,47.84626,-54.09684
2021-06-14 18:29:00+00:00,212.8565,9.6,13.92,47.84626,-54.09684
2021-06-14 18:39:00+00:00,207.5031,9.5,13.92,47.84626,-54.09684
2021-06-14 18:49:00+00:00,200.1531,9.3,13.92,47.84626,-54.09684
2021-06-14 18:59:00+00:00,197.6447,9.36,13.92,47.84626,-54.09684
2021-06-14 19:09:00+00:00,195.3981,8.99,13.92,47.84626,-54.09684
2021-06-14 19:19:01+00:00,191.7848,8.73,13.84,47.84626,-54.09684
2021-06-14 19:29:01+00:00,187.4965,8.75,13.84,47.84626,-54.09684
2021-06-14 19:39:01+00:00,188.6248,8.8,13.84,47.84626,-54.09684
2021-06-14 19:49:01+00:00,191.8115,8.7,13.84,47.84626,-54.09684
2021-06-14 19:59:01+00:00,187.7648,8.7,13.84,47.84626,-54.09684
2021-06-14 20:09:01+00:00,188.1798,8.7,13.84,47.84626,-54.09684
2021-06-14 20:19:01+00:00,194.2132,8.5,13.76,47.84626,-54.09684
2021-06-14 20:29:01+00:00,198.3114,8.4,13.76,47.84626,-54.09684
2021-06-14 20:39:01+00:00,200.8915,8.39,13.76,47.84626,-54.09684
2021-06-14 20:49:01+00:00,204.0081,8.4,13.76,47.84626,-54.09684
2021-06-14 20:59:01+00:00,207.6714,8.46,13.76,47.84626,-54.09684
2021-06-14 21:09:01+00:00,210.4814,8.49,13.76,47.84626,-54.09684
2021-06-14 21:19:01+00:00,214.0631,8.5,13.68,47.84626,-54.09684
2021-06-14 21:29:01+00:00,218.8481,8.5,13.68,47.84626,-54.09684
2021-06-14 21:39:01+00:00,222.8698,8.61,13.68,47.84626,-54.09684
2021-06-14 21:49:01+00:00,227.0731,8.79,13.68,47.84626,-54.09684
2021-06-14 21:59:01+00:00,232.4714,8.9,13.68,47.84626,-54.09684
2021-06-14 22:09:01+00:00,236.7215,8.9,13.68,47.84626,-54.09684
2021-06-14 22:19:01+00:00,240.2364,8.9,13.6,47.84626,-54.09684
2021-06-14 22:29:01+00:00,243.7531,8.8,13.6,47.84626,-54.09684
2021-06-14 22:39:01+00:00,246.4598,8.78,13.6,47.84626,-54.09684
2021-06-14 22:49:01+00:00,247.5831,8.7,13.6,47.84626,-54.09684
2021-06-14 22:59:01+00:00,250.1397,8.73,13.6,47.84626,-54.09684
2021-06-14 23:09:01+00:00,254.6497,8.83,13.6,47.84626,-54.09684
2021-06-14 23:19:01+00:00,258.7464,8.95,13.29,47.84626,-54.09684
2021-06-14 23:29:01+00:00,260.5748,9.1,13.29,47.84626,-54.09684
2021-06-14 23:39:01+00:00,264.8964,9.25,13.29,47.84626,-54.09684
2021-06-14 23:49:01+00:00,269.8347,9.39,13.29,47.84626,-54.09684
2021-06-14 23:59:01+00:00,274.563,9.5,13.29,47.84626,-54.09684
